| time (UTC) | temp F | wind direction | speed MPH | gust MPH | rain 1hr in | rain 24hr in | rain mn in | humidity % | barometer mb |
| 20260509024505 | 77 | 221 | 0.0 | 1.0 | 0.00 | 0.00 | 0.00 | 36 | 999.7 |
| 20260509024004 | 77 | 222 | 0.0 | 1.0 | 0.00 | 0.00 | 0.00 | 36 | 999.7 |
| 20260509023504 | 77 | 203 | 0.0 | 1.0 | 0.00 | 0.00 | 0.00 | 36 | 999.7 |
| 20260509023047 | 77 | 225 | 0.0 | 1.0 | 0.00 | 0.00 | 0.00 | 36 | 999.8 |
| 20260509022547 | 77 | 236 | 0.0 | 1.0 | 0.00 | 0.00 | 0.00 | 36 | 999.6 |
| 20260509022047 | 77 | 246 | 0.0 | 1.0 | 0.00 | 0.00 | 0.00 | 37 | 999.6 |
| 20260509021547 | 77 | 238 | 0.0 | 1.0 | 0.00 | 0.00 | 0.00 | 37 | 999.5 |
| 20260509021049 | 77 | 233 | 0.0 | 1.0 | 0.00 | 0.00 | 0.00 | 37 | 999.4 |
| 20260509020547 | 77 | 228 | 0.0 | 1.0 | 0.00 | 0.00 | 0.00 | 38 | 999.5 |
| 20260509020028 | 77 | 235 | 0.0 | 1.0 | 0.00 | 0.00 | 0.00 | 38 | 999.3 |
| 20260509015528 | 77 | 236 | 0.0 | 1.0 | 0.00 | 0.00 | 0.00 | 37 | 999.2 |
| 20260509015028 | 77 | 253 | 0.0 | 2.0 | 0.00 | 0.00 | 0.00 | 37 | 999.2 |
| 20260509014528 | 77 | 259 | 0.0 | 2.0 | 0.00 | 0.00 | 0.00 | 37 | 999.0 |
| 20260509014027 | 77 | 231 | 0.0 | 1.0 | 0.00 | 0.00 | 0.00 | 37 | 998.8 |
| 20260509013527 | 77 | 257 | 0.0 | 1.0 | 0.00 | 0.00 | 0.00 | 38 | 998.8 |
| 20260509013010 | 77 | 222 | 0.0 | 4.0 | 0.00 | 0.00 | 0.00 | 38 | 998.8 |
| 20260509012511 | 77 | 232 | 0.0 | 4.0 | 0.00 | 0.00 | 0.00 | 37 | 998.7 |
| 20260509012009 | 77 | 228 | 0.0 | 1.0 | 0.00 | 0.00 | 0.00 | 37 | 998.6 |
| 20260509011510 | 77 | 255 | 0.0 | 1.0 | 0.00 | 0.00 | 0.00 | 38 | 998.5 |
| 20260509011010 | 78 | 232 | 0.0 | 1.0 | 0.00 | 0.00 | 0.00 | 37 | 998.4 |
| 20260509010509 | 78 | 236 | 0.0 | 1.0 | 0.00 | 0.00 | 0.00 | 36 | 998.3 |
| 20260509010055 | 78 | 235 | 0.0 | 1.0 | 0.00 | 0.00 | 0.00 | 36 | 998.2 |
| 20260509005552 | 78 | 241 | 0.0 | 1.0 | 0.00 | 0.00 | 0.00 | 36 | 998.3 |
| 20260509005052 | 77 | 219 | 0.0 | 6.0 | 0.00 | 0.00 | 0.00 | 36 | 998.1 |
| 20260509004558 | 77 | 238 | 0.0 | 11.0 | 0.00 | 0.00 | 0.00 | 36 | 998.0 |
| 20260509004053 | 77 | 231 | 5.0 | 15.0 | 0.00 | 0.00 | 0.00 | 36 | 997.9 |
| 20260509003550 | 77 | 236 | 7.0 | 15.0 | 0.00 | 0.00 | 0.00 | 36 | 997.9 |
| 20260509003032 | 77 | 250 | 0.0 | 1.0 | 0.00 | 0.00 | 0.00 | 37 | 998.0 |
| 20260509002532 | 77 | 256 | 0.0 | 18.0 | 0.00 | 0.00 | 0.00 | 38 | 997.9 |
| 20260509002032 | 78 | 253 | 9.0 | 18.0 | 0.00 | 0.00 | 0.00 | 36 | 997.9 |
| 20260509001533 | 78 | 231 | 5.0 | 22.0 | 0.00 | 0.00 | 0.00 | 36 | 997.7 |
| 20260509001031 | 80 | 249 | 7.0 | 22.0 | 0.00 | 0.00 | 0.00 | 35 | 997.7 |
| 20260509000534 | 80 | 236 | 8.0 | 19.0 | 0.00 | 0.00 | 0.00 | 32 | 997.4 |
| 20260509000035 | 81 | 253 | 8.0 | 17.0 | 0.00 | 0.00 | 0.00 | 31 | 997.4 |
| 20260508235519 | 82 | 232 | 9.0 | 17.0 | 0.00 | 0.00 | 0.00 | 30 | 997.4 |
| 20260508235019 | 83 | 228 | 9.0 | 17.0 | 0.00 | 0.00 | 0.00 | 28 | 997.3 |
| 20260508234518 | 83 | 229 | 0.0 | 2.0 | 0.00 | 0.00 | 0.00 | 27 | 997.1 |
| 20260508234019 | 84 | 200 | 0.0 | 1.0 | 0.00 | 0.00 | 0.00 | 26 | 997.0 |
| 20260508233522 | 84 | 255 | 0.0 | 1.0 | 0.00 | 0.00 | 0.00 | 26 | 997.0 |
| 20260508233018 | 84 | 239 | 0.0 | 1.0 | 0.00 | 0.00 | 0.00 | 27 | 997.0 |
| 20260508232517 | 84 | 236 | 0.0 | 1.0 | 0.00 | 0.00 | 0.00 | 27 | 997.0 |
| 20260508232016 | 84 | 249 | 0.0 | 1.0 | 0.00 | 0.00 | 0.00 | 26 | 997.0 |
| 20260508231517 | 84 | 239 | 0.0 | 1.0 | 0.00 | 0.00 | 0.00 | 26 | 996.9 |
| 20260508231019 | 84 | 273 | 0.0 | 1.0 | 0.00 | 0.00 | 0.00 | 27 | 996.9 |
| 20260508230516 | 84 | 249 | 0.0 | 11.0 | 0.00 | 0.00 | 0.00 | 26 | 996.9 |
| 20260508230017 | 84 | 233 | 2.0 | 15.0 | 0.00 | 0.00 | 0.00 | 26 | 997.0 |
| 20260508225516 | 85 | 263 | 7.0 | 15.0 | 0.00 | 0.00 | 0.00 | 25 | 996.9 |
| 20260508225016 | 86 | 229 | 5.0 | 15.0 | 0.00 | 0.00 | 0.00 | 25 | 996.8 |
| 20260508224537 | 86 | 233 | 2.0 | 10.0 | 0.00 | 0.00 | 0.00 | 24 | 996.8 |
| 20260508224015 | 86 | 263 | 0.0 | 6.0 | 0.00 | 0.00 | 0.00 | 24 | 996.7 |
| 20260508223515 | 85 | 263 | 0.0 | 12.0 | 0.00 | 0.00 | 0.00 | 24 | 996.9 |
| 20260508223015 | 86 | 251 | 7.0 | 12.0 | 0.00 | 0.00 | 0.00 | 23 | 996.8 |
| 20260508222514 | 86 | 288 | 0.0 | 12.0 | 0.00 | 0.00 | 0.00 | 24 | 996.8 |
| 20260508222014 | 87 | 246 | 7.0 | 12.0 | 0.00 | 0.00 | 0.00 | 22 | 996.9 |
| 20260508221515 | 87 | 235 | 2.0 | 11.0 | 0.00 | 0.00 | 0.00 | 23 | 997.0 |
| 20260508221013 | 87 | 257 | 5.0 | 15.0 | 0.00 | 0.00 | 0.00 | 22 | 997.1 |
| 20260508220512 | 87 | 211 | 8.0 | 18.0 | 0.00 | 0.00 | 0.00 | 21 | 997.0 |
| 20260508220111 | 87 | 243 | 10.0 | 18.0 | 0.00 | 0.00 | 0.00 | 21 | 997.1 |
| 20260508215556 | 87 | 248 | 6.0 | 20.0 | 0.00 | 0.00 | 0.00 | 22 | 997.1 |
| 20260508215053 | 87 | 269 | 10.0 | 20.0 | 0.00 | 0.00 | 0.00 | 22 | 997.1 |
| 20260508214553 | 87 | 264 | 2.0 | 12.0 | 0.00 | 0.00 | 0.00 | 23 | 997.1 |
| 20260508214054 | 87 | 229 | 6.0 | 14.0 | 0.00 | 0.00 | 0.00 | 23 | 997.2 |
| 20260508213555 | 87 | 266 | 3.0 | 12.0 | 0.00 | 0.00 | 0.00 | 22 | 997.3 |
| 20260508213050 | 88 | 258 | 0.0 | 11.0 | 0.00 | 0.00 | 0.00 | 23 | 997.4 |
| 20260508212532 | 87 | 274 | 3.0 | 10.0 | 0.00 | 0.00 | 0.00 | 23 | 997.4 |
| 20260508212030 | 87 | 240 | 0.0 | 1.0 | 0.00 | 0.00 | 0.00 | 22 | 997.6 |
| 20260508211530 | 87 | 240 | 0.0 | 10.0 | 0.00 | 0.00 | 0.00 | 23 | 997.7 |
| 20260508211028 | 86 | 249 | 5.0 | 15.0 | 0.00 | 0.00 | 0.00 | 23 | 997.8 |
| 20260508210527 | 87 | 231 | 7.0 | 15.0 | 0.00 | 0.00 | 0.00 | 23 | 998.1 |
| 20260508210027 | 87 | 242 | 0.0 | 6.0 | 0.00 | 0.00 | 0.00 | 23 | 998.0 |
| 20260508205508 | 87 | 245 | 0.0 | 2.0 | 0.00 | 0.00 | 0.00 | 23 | 998.2 |
| 20260508205009 | 87 | 262 | 0.0 | 2.0 | 0.00 | 0.00 | 0.00 | 22 | 998.2 |
| 20260508204506 | 86 | 169 | 0.0 | 1.0 | 0.00 | 0.00 | 0.00 | 24 | 998.2 |
| 20260508204006 | 86 | 224 | 0.0 | 6.0 | 0.00 | 0.00 | 0.00 | 23 | 998.4 |
| 20260508203507 | 87 | 153 | 1.0 | 6.0 | 0.00 | 0.00 | 0.00 | 24 | 998.5 |
| 20260508203004 | 86 | 218 | 0.0 | 1.0 | 0.00 | 0.00 | 0.00 | 26 | 998.5 |
| 20260508202545 | 86 | 248 | 0.0 | 1.0 | 0.00 | 0.00 | 0.00 | 26 | 998.8 |
| 20260508202044 | 85 | 226 | 0.0 | 1.0 | 0.00 | 0.00 | 0.00 | 26 | 998.9 |
| 20260508201543 | 85 | 268 | 0.0 | 1.0 | 0.00 | 0.00 | 0.00 | 26 | 998.9 |
| 20260508201043 | 86 | 236 | 0.0 | 1.0 | 0.00 | 0.00 | 0.00 | 26 | 998.8 |
| 20260508200543 | 87 | 250 | 0.0 | 2.0 | 0.00 | 0.00 | 0.00 | 26 | 999.0 |
| 20260508200047 | 87 | 298 | 0.0 | 11.0 | 0.00 | 0.00 | 0.00 | 28 | 999.2 |
| 20260508195524 | 86 | 165 | 0.0 | 13.0 | 0.00 | 0.00 | 0.00 | 27 | 999.3 |
| 20260508195026 | 86 | 243 | 0.0 | 1.0 | 0.00 | 0.00 | 0.00 | 26 | 999.4 |
| 20260508194522 | 86 | 236 | 0.0 | 5.0 | 0.00 | 0.00 | 0.00 | 25 | 999.5 |
| 20260508194020 | 86 | 245 | 0.0 | 9.0 | 0.00 | 0.00 | 0.00 | 26 | 999.4 |
| 20260508193520 | 86 | 252 | 4.0 | 14.0 | 0.00 | 0.00 | 0.00 | 27 | 999.5 |
| 20260508193020 | 86 | 252 | 9.0 | 14.0 | 0.00 | 0.00 | 0.00 | 27 | 999.6 |
| 20260508192601 | 85 | 239 | 0.0 | 1.0 | 0.00 | 0.00 | 0.00 | 28 | 999.7 |
| 20260508192100 | 85 | 225 | 0.0 | 9.0 | 0.00 | 0.00 | 0.00 | 28 | 999.8 |
| 20260508191600 | 85 | 243 | 1.0 | 9.0 | 0.00 | 0.00 | 0.00 | 28 | 999.9 |
| 20260508191059 | 84 | 264 | 0.0 | 1.0 | 0.00 | 0.00 | 0.00 | 29 | 999.9 |
| 20260508190559 | 85 | 258 | 0.0 | 12.0 | 0.00 | 0.00 | 0.00 | 27 | 1000.0 |
| 20260508190057 | 86 | 239 | 0.0 | 12.0 | 0.00 | 0.00 | 0.00 | 27 | 1000.0 |
| 20260508185539 | 85 | 255 | 1.0 | 11.0 | 0.00 | 0.00 | 0.00 | 28 | 1000.1 |
| 20260508185039 | 86 | 252 | 4.0 | 13.0 | 0.00 | 0.00 | 0.00 | 28 | 1000.1 |
| 20260508184538 | 86 | 233 | 2.0 | 6.0 | 0.00 | 0.00 | 0.00 | 27 | 1000.2 |
| 20260508184036 | 85 | 87 | 0.0 | 7.0 | 0.00 | 0.00 | 0.00 | 28 | 1000.2 |
| 20260508183535 | 85 | 256 | 0.0 | 7.0 | 0.00 | 0.00 | 0.00 | 29 | 1000.5 |
| 20260508183039 | 84 | 294 | 0.0 | 1.0 | 0.00 | 0.00 | 0.00 | 30 | 1000.5 |
| 20260508182516 | 83 | 226 | 0.0 | 12.0 | 0.00 | 0.00 | 0.00 | 30 | 1000.6 |
| 20260508182014 | 83 | 225 | 0.0 | 1.0 | 0.00 | 0.00 | 0.00 | 30 | 1000.7 |
| 20260508181514 | 83 | 237 | 0.0 | 6.0 | 0.00 | 0.00 | 0.00 | 30 | 1000.8 |
| 20260508181016 | 83 | 160 | 0.0 | 6.0 | 0.00 | 0.00 | 0.00 | 31 | 1000.9 |
| 20260508180511 | 82 | 294 | 0.0 | 1.0 | 0.00 | 0.00 | 0.00 | 32 | 1001.0 |
| 20260508180010 | 81 | 96 | 0.0 | 1.0 | 0.00 | 0.00 | 0.00 | 32 | 1001.0 |
| 20260508175555 | 81 | 259 | 0.0 | 10.0 | 0.00 | 0.00 | 0.00 | 32 | 1001.1 |
| 20260508175055 | 81 | 256 | 3.0 | 10.0 | 0.00 | 0.00 | 0.00 | 32 | 1001.1 |
| 20260508174552 | 81 | 236 | 0.0 | 1.0 | 0.00 | 0.00 | 0.00 | 33 | 1001.1 |
| 20260508174052 | 81 | 242 | 0.0 | 1.0 | 0.00 | 0.00 | 0.00 | 33 | 1001.3 |
| 20260508173554 | 81 | 235 | 0.0 | 3.0 | 0.00 | 0.00 | 0.00 | 33 | 1001.3 |
| 20260508173050 | 81 | 236 | 0.0 | 9.0 | 0.00 | 0.00 | 0.00 | 32 | 1001.4 |
| 20260508172531 | 82 | 260 | 4.0 | 9.0 | 0.00 | 0.00 | 0.00 | 31 | 1001.5 |
| 20260508172030 | 81 | 240 | 0.0 | 1.0 | 0.00 | 0.00 | 0.00 | 34 | 1001.5 |
| 20260508171535 | 81 | 217 | 0.0 | 2.0 | 0.00 | 0.00 | 0.00 | 33 | 1001.6 |
| 20260508171032 | 81 | 255 | 0.0 | 2.0 | 0.00 | 0.00 | 0.00 | 32 | 1001.6 |
| 20260508170527 | 81 | 235 | 0.0 | 2.0 | 0.00 | 0.00 | 0.00 | 35 | 1001.7 |
| 20260508170028 | 80 | 229 | 0.0 | 2.0 | 0.00 | 0.00 | 0.00 | 34 | 1001.9 |
| 20260508165507 | 81 | 233 | 0.0 | 1.0 | 0.00 | 0.00 | 0.00 | 34 | 1002.0 |
| 20260508165006 | 80 | 249 | 0.0 | 1.0 | 0.00 | 0.00 | 0.00 | 36 | 1002.1 |
| 20260508164505 | 80 | 251 | 0.0 | 3.0 | 0.00 | 0.00 | 0.00 | 36 | 1002.1 |
| 20260508164004 | 79 | 273 | 0.0 | 3.0 | 0.00 | 0.00 | 0.00 | 37 | 1002.3 |
| 20260508163504 | 79 | 230 | 0.0 | 1.0 | 0.00 | 0.00 | 0.00 | 36 | 1002.4 |
| 20260508163002 | 79 | 253 | 0.0 | 1.0 | 0.00 | 0.00 | 0.00 | 37 | 1002.5 |
| 20260508162551 | 79 | 252 | 0.0 | 1.0 | 0.00 | 0.00 | 0.00 | 37 | 1002.5 |
| 20260508162050 | 78 | 266 | 0.0 | 1.0 | 0.00 | 0.00 | 0.00 | 38 | 1002.5 |
| 20260508161548 | 78 | 246 | 0.0 | 1.0 | 0.00 | 0.00 | 0.00 | 37 | 1002.6 |
| 20260508161048 | 77 | 232 | 0.0 | 1.0 | 0.00 | 0.00 | 0.00 | 38 | 1002.6 |
| 20260508160549 | 77 | 256 | 0.0 | 1.0 | 0.00 | 0.00 | 0.00 | 38 | 1002.8 |
| 20260508160047 | 77 | 252 | 0.0 | 1.0 | 0.00 | 0.00 | 0.00 | 38 | 1002.9 |
| 20260508155547 | 77 | 221 | 0.0 | 1.0 | 0.00 | 0.00 | 0.00 | 40 | 1002.9 |
| 20260508155045 | 77 | 267 | 0.0 | 1.0 | 0.00 | 0.00 | 0.00 | 41 | 1002.9 |
| 20260508154544 | 76 | 253 | 0.0 | 1.0 | 0.00 | 0.00 | 0.00 | 41 | 1003.0 |
| 20260508154041 | 75 | 246 | 0.0 | 1.0 | 0.00 | 0.00 | 0.00 | 42 | 1003.1 |
| 20260508153541 | 75 | 185 | 0.0 | 0.0 | 0.00 | 0.00 | 0.00 | 41 | 1003.0 |
| 20260508153040 | 75 | 253 | 0.0 | 1.0 | 0.00 | 0.00 | 0.00 | 44 | 1003.0 |
| 20260508152541 | 74 | 289 | 0.0 | 1.0 | 0.00 | 0.00 | 0.00 | 44 | 1003.0 |
| 20260508152037 | 74 | 262 | 0.0 | 0.0 | 0.00 | 0.00 | 0.00 | 46 | 1003.1 |
| 20260508151544 | 74 | 243 | 0.0 | 0.0 | 0.00 | 0.00 | 0.00 | 49 | 1003.2 |
| 20260508151036 | 73 | 284 | 0.0 | 0.0 | 0.00 | 0.00 | 0.00 | 48 | 1003.2 |
| 20260508150534 | 73 | 312 | 0.0 | 0.0 | 0.00 | 0.00 | 0.00 | 49 | 1003.2 |
| 20260508150040 | 73 | 293 | 0.0 | 0.0 | 0.00 | 0.00 | 0.00 | 49 | 1003.2 |
| 20260508145535 | 73 | 324 | 0.0 | 0.0 | 0.00 | 0.00 | 0.00 | 50 | 1003.2 |
| 20260508145031 | 72 | 257 | 0.0 | 0.0 | 0.00 | 0.00 | 0.00 | 51 | 1003.1 |
| 20260508144541 | 72 | 304 | 0.0 | 0.0 | 0.00 | 0.00 | 0.00 | 52 | 1003.0 |
| 20260508144029 | 72 | 240 | 0.0 | 0.0 | 0.00 | 0.00 | 0.00 | 52 | 1003.2 |
| 20260508143527 | 71 | 253 | 0.0 | 0.0 | 0.00 | 0.00 | 0.00 | 53 | 1003.1 |
| 20260508143035 | 71 | 250 | 0.0 | 0.0 | 0.00 | 0.00 | 0.00 | 54 | 1003.0 |
| 20260508142525 | 70 | 257 | 0.0 | 0.0 | 0.00 | 0.00 | 0.00 | 55 | 1003.0 |
| 20260508142008 | 70 | 243 | 0.0 | 0.0 | 0.00 | 0.00 | 0.00 | 55 | 1003.1 |
| 20260508141514 | 70 | 250 | 0.0 | 0.0 | 0.00 | 0.00 | 0.00 | 56 | 1003.1 |
| 20260508141011 | 70 | 259 | 0.0 | 0.0 | 0.00 | 0.00 | 0.00 | 55 | 1003.0 |
| 20260508140507 | 70 | 273 | 0.0 | 0.0 | 0.00 | 0.00 | 0.00 | 54 | 1003.0 |
| 20260508140006 | 70 | 65 | 0.0 | 0.0 | 0.00 | 0.00 | 0.00 | 55 | 1002.9 |
| 20260508135503 | 69 | 65 | 0.0 | 0.0 | 0.00 | 0.00 | 0.00 | 57 | 1002.9 |
| 20260508135045 | 68 | 65 | 0.0 | 0.0 | 0.00 | 0.00 | 0.00 | 57 | 1003.0 |
| 20260508134545 | 68 | 65 | 0.0 | 0.0 | 0.00 | 0.00 | 0.00 | 58 | 1003.0 |
| 20260508134042 | 67 | 65 | 0.0 | 0.0 | 0.00 | 0.00 | 0.00 | 59 | 1003.0 |
| 20260508133541 | 66 | 65 | 0.0 | 0.0 | 0.00 | 0.00 | 0.00 | 59 | 1002.9 |
| 20260508133044 | 66 | 65 | 0.0 | 0.0 | 0.00 | 0.00 | 0.00 | 60 | 1002.9 |
| 20260508132538 | 66 | 62 | 0.0 | 0.0 | 0.00 | 0.00 | 0.00 | 61 | 1002.8 |
| 20260508132019 | 65 | 62 | 0.0 | 0.0 | 0.00 | 0.00 | 0.00 | 62 | 1002.8 |
| 20260508131521 | 64 | 62 | 0.0 | 0.0 | 0.00 | 0.00 | 0.00 | 62 | 1002.8 |
| 20260508131022 | 64 | 61 | 0.0 | 0.0 | 0.00 | 0.00 | 0.00 | 61 | 1002.7 |
| 20260508130517 | 64 | 64 | 0.0 | 0.0 | 0.00 | 0.00 | 0.00 | 63 | 1002.6 |
| 20260508130023 | 64 | 63 | 0.0 | 0.0 | 0.00 | 0.00 | 0.00 | 63 | 1002.5 |
| 20260508125515 | 64 | 63 | 0.0 | 0.0 | 0.00 | 0.00 | 0.00 | 63 | 1002.5 |
| 20260508125058 | 0 | 0.0 | 0.0 | 0.00 | 0.00 | 0.00 | 1002.4 | ||
| 20260508124602 | 0 | 0.0 | 0.0 | 0.00 | 0.00 | 0.00 | 1002.3 | ||
| 20260508124059 | 0 | 0.0 | 0.0 | 0.00 | 0.00 | 0.00 | 1002.4 | ||
| 20260508123558 | 0 | 0.0 | 0.0 | 0.00 | 0.00 | 0.00 | 1002.3 | ||
| 20260508123058 | 0 | 0.0 | 0.0 | 0.00 | 0.00 | 0.00 | 1002.3 | ||
| 20260508122557 | 0 | 0.0 | 0.0 | 0.00 | 0.00 | 0.00 | 1002.3 | ||
| 20260508122040 | 0 | 0.0 | 0.0 | 0.00 | 0.00 | 0.00 | 1002.3 | ||
| 20260508121540 | 0 | 0.0 | 0.0 | 0.00 | 0.00 | 0.00 | 1002.3 | ||
| 20260508121039 | 0 | 0.0 | 0.0 | 0.00 | 0.00 | 0.00 | 1002.3 | ||
| 20260508120540 | 0 | 0.0 | 0.0 | 0.00 | 0.00 | 0.00 | 1002.2 | ||
| 20260508120041 | 0 | 0.0 | 0.0 | 0.00 | 0.00 | 0.00 | 1002.2 | ||
| 20260508115539 | 0 | 0.0 | 0.0 | 0.00 | 0.00 | 0.00 | 1002.2 | ||
| 20260508115021 | 0 | 0.0 | 0.0 | 0.00 | 0.00 | 0.00 | 1002.2 | ||
| 20260508114531 | 0 | 0.0 | 0.0 | 0.00 | 0.00 | 0.00 | 1002.1 | ||
| 20260508114025 | 0 | 0.0 | 0.0 | 0.00 | 0.00 | 0.00 | 1002.2 | ||
| 20260508113522 | 0 | 0.0 | 0.0 | 0.00 | 0.00 | 0.00 | 1002.1 | ||
| 20260508113034 | 0 | 0.0 | 0.0 | 0.00 | 0.00 | 0.00 | 1002.1 | ||
| 20260508112521 | 0 | 0.0 | 0.0 | 0.00 | 0.00 | 0.00 | 1002.0 | ||
| 20260508112004 | 0 | 0.0 | 0.0 | 0.00 | 0.00 | 0.00 | 1002.0 | ||
| 20260508111504 | 0 | 0.0 | 0.0 | 0.00 | 0.00 | 0.00 | 1002.0 | ||
| 20260508111004 | 0 | 0.0 | 0.0 | 0.00 | 0.00 | 0.00 | 1001.9 | ||
| 20260508110503 | 0 | 0.0 | 0.0 | 0.00 | 0.00 | 0.00 | 1001.9 | ||
| 20260508110003 | 0 | 0.0 | 0.0 | 0.00 | 0.00 | 0.00 | 1001.9 | ||
| 20260508105503 | 0 | 0.0 | 0.0 | 0.00 | 0.00 | 0.00 | 1001.9 | ||
| 20260508105048 | 0 | 0.0 | 0.0 | 0.00 | 0.00 | 0.00 | 1001.9 | ||
| 20260508104554 | 0 | 0.0 | 0.0 | 0.00 | 0.00 | 0.00 | 1001.9 | ||
| 20260508104045 | 0 | 0.0 | 0.0 | 0.00 | 0.00 | 0.00 | 1001.9 | ||
| 20260508103545 | 0 | 0.0 | 0.0 | 0.00 | 0.00 | 0.00 | 1001.9 | ||
| 20260508103044 | 0 | 0.0 | 0.0 | 0.00 | 0.00 | 0.00 | 1002.0 | ||
| 20260508102545 | 65 | 252 | 0.0 | 0.0 | 0.00 | 0.00 | 0.00 | 63 | 1002.0 |
| 20260508102027 | 65 | 252 | 0.0 | 0.0 | 0.00 | 0.00 | 0.00 | 63 | 1002.0 |
| 20260508101535 | 65 | 252 | 0.0 | 0.0 | 0.00 | 0.00 | 0.00 | 62 | 1001.9 |
| 20260508101026 | 65 | 252 | 0.0 | 0.0 | 0.00 | 0.00 | 0.00 | 62 | 1001.9 |
| 20260508100526 | 65 | 252 | 0.0 | 0.0 | 0.00 | 0.00 | 0.00 | 62 | 1001.9 |
| 20260508100034 | 65 | 252 | 0.0 | 0.0 | 0.00 | 0.00 | 0.00 | 62 | 1001.8 |
| 20260508095526 | 65 | 251 | 0.0 | 0.0 | 0.00 | 0.00 | 0.00 | 62 | 1001.8 |
| 20260508095014 | 65 | 252 | 0.0 | 0.0 | 0.00 | 0.00 | 0.00 | 61 | 1001.8 |
| 20260508094514 | 65 | 252 | 0.0 | 0.0 | 0.00 | 0.00 | 0.00 | 61 | 1001.7 |
| 20260508094015 | 65 | 252 | 0.0 | 0.0 | 0.00 | 0.00 | 0.00 | 61 | 1001.7 |
| 20260508093514 | 65 | 252 | 0.0 | 0.0 | 0.00 | 0.00 | 0.00 | 61 | 1001.7 |
| 20260508093015 | 65 | 252 | 0.0 | 0.0 | 0.00 | 0.00 | 0.00 | 61 | 1001.6 |
| 20260508092513 | 65 | 251 | 0.0 | 0.0 | 0.00 | 0.00 | 0.00 | 61 | 1001.7 |
| 20260508092014 | 65 | 252 | 0.0 | 0.0 | 0.00 | 0.00 | 0.00 | 61 | 1001.7 |
| 20260508091513 | 65 | 252 | 0.0 | 0.0 | 0.00 | 0.00 | 0.00 | 61 | 1001.6 |
| 20260508091020 | 65 | 252 | 0.0 | 0.0 | 0.00 | 0.00 | 0.00 | 61 | 1001.5 |
| 20260508090517 | 65 | 252 | 0.0 | 0.0 | 0.00 | 0.00 | 0.00 | 60 | 1001.5 |
| 20260508090014 | 66 | 252 | 0.0 | 0.0 | 0.00 | 0.00 | 0.00 | 60 | 1001.6 |
| 20260508085513 | 66 | 252 | 0.0 | 0.0 | 0.00 | 0.00 | 0.00 | 59 | 1001.7 |
| 20260508085012 | 66 | 252 | 0.0 | 0.0 | 0.00 | 0.00 | 0.00 | 59 | 1001.7 |
| 20260508084512 | 66 | 252 | 0.0 | 0.0 | 0.00 | 0.00 | 0.00 | 58 | 1001.7 |
| 20260508084013 | 66 | 251 | 0.0 | 0.0 | 0.00 | 0.00 | 0.00 | 59 | 1001.7 |
| 20260508083512 | 67 | 252 | 0.0 | 0.0 | 0.00 | 0.00 | 0.00 | 58 | 1001.7 |
| 20260508083012 | 67 | 248 | 0.0 | 0.0 | 0.00 | 0.00 | 0.00 | 57 | 1001.7 |
| 20260508082517 | 68 | 262 | 0.0 | 0.0 | 0.00 | 0.00 | 0.00 | 56 | 1001.6 |
| 20260508082011 | 68 | 266 | 0.0 | 0.0 | 0.00 | 0.00 | 0.00 | 56 | 1001.7 |
| 20260508081514 | 68 | 262 | 0.0 | 0.0 | 0.00 | 0.00 | 0.00 | 56 | 1001.8 |
| 20260508081010 | 68 | 258 | 0.0 | 0.0 | 0.00 | 0.00 | 0.00 | 56 | 1001.8 |
| 20260508080511 | 68 | 257 | 0.0 | 0.0 | 0.00 | 0.00 | 0.00 | 55 | 1001.9 |
| 20260508080011 | 68 | 257 | 0.0 | 0.0 | 0.00 | 0.00 | 0.00 | 56 | 1001.9 |
| 20260508075512 | 68 | 257 | 0.0 | 0.0 | 0.00 | 0.00 | 0.00 | 56 | 1002.0 |
| 20260508075111 | 68 | 258 | 0.0 | 0.0 | 0.00 | 0.00 | 0.00 | 55 | 1002.0 |
| 20260508074604 | 68 | 257 | 0.0 | 1.0 | 0.00 | 0.00 | 0.00 | 55 | 1002.1 |
| 20260508074058 | 69 | 257 | 0.0 | 1.0 | 0.00 | 0.00 | 0.00 | 55 | 1002.2 |
| 20260508073559 | 69 | 240 | 0.0 | 1.0 | 0.00 | 0.00 | 0.00 | 54 | 1002.3 |
| 20260508073107 | 69 | 257 | 0.0 | 1.0 | 0.00 | 0.00 | 0.00 | 53 | 1002.3 |
| 20260508072559 | 70 | 233 | 0.0 | 1.0 | 0.00 | 0.00 | 0.00 | 52 | 1002.5 |
| 20260508072058 | 70 | 231 | 0.0 | 1.0 | 0.00 | 0.00 | 0.00 | 50 | 1002.6 |
| 20260508071601 | 70 | 195 | 0.0 | 0.0 | 0.00 | 0.00 | 0.00 | 49 | 1002.5 |
| 20260508071058 | 70 | 196 | 0.0 | 0.0 | 0.00 | 0.00 | 0.00 | 48 | 1002.6 |
| 20260508070557 | 71 | 160 | 0.0 | 2.0 | 0.00 | 0.00 | 0.00 | 48 | 1002.6 |
| 20260508065558 | 71 | 186 | 0.0 | 4.0 | 0.00 | 0.00 | 0.00 | 48 | 1002.6 |
| 20260508065057 | 70 | 74 | 0.0 | 4.0 | 0.00 | 0.00 | 0.00 | 49 | 1002.5 |
| 20260508064606 | 70 | 51 | 0.0 | 1.0 | 0.00 | 0.00 | 0.00 | 49 | 1002.6 |
| 20260508064056 | 71 | 68 | 0.0 | 1.0 | 0.00 | 0.00 | 0.00 | 49 | 1002.6 |
| 20260508063556 | 71 | 49 | 0.0 | 6.0 | 0.00 | 0.00 | 0.00 | 49 | 1002.5 |
| 20260508063156 | 71 | 68 | 2.0 | 6.0 | 0.00 | 0.00 | 0.00 | 48 | 1002.5 |
| 20260508062555 | 71 | 69 | 0.0 | 1.0 | 0.00 | 0.00 | 0.00 | 49 | 1002.4 |
| 20260508062055 | 70 | 80 | 0.0 | 1.0 | 0.00 | 0.00 | 0.00 | 51 | 1002.5 |
| 20260508061600 | 70 | 56 | 0.0 | 1.0 | 0.00 | 0.00 | 0.00 | 51 | 1002.6 |
| 20260508061055 | 70 | 18 | 0.0 | 0.0 | 0.00 | 0.00 | 0.00 | 51 | 1002.6 |
| 20260508060555 | 71 | 53 | 0.0 | 0.0 | 0.00 | 0.00 | 0.00 | 51 | 1002.6 |
| 20260508060155 | 71 | 61 | 0.0 | 2.0 | 0.00 | 0.00 | 0.00 | 50 | 1002.6 |
| 20260508055554 | 72 | 69 | 0.0 | 2.0 | 0.00 | 0.00 | 0.00 | 48 | 1002.6 |
| 20260508055054 | 71 | 166 | 0.0 | 2.0 | 0.00 | 0.00 | 0.00 | 49 | 1002.6 |
| 20260508054600 | 71 | 107 | 0.0 | 3.0 | 0.00 | 0.00 | 0.00 | 49 | 1002.7 |
| 20260508054036 | 71 | 79 | 0.0 | 6.0 | 0.00 | 0.00 | 0.00 | 50 | 1002.7 |
| 20260508053536 | 71 | 70 | 2.0 | 7.0 | 0.00 | 0.00 | 0.00 | 50 | 1002.6 |
| 20260508053036 | 71 | 96 | 0.0 | 10.0 | 0.00 | 0.00 | 0.00 | 51 | 1002.5 |
| 20260508052536 | 72 | 73 | 0.0 | 10.0 | 0.00 | 0.00 | 0.00 | 51 | 1002.4 |
| 20260508052035 | 72 | 57 | 0.0 | 5.0 | 0.00 | 0.00 | 0.00 | 51 | 1002.4 |
| 20260508051527 | 72 | 68 | 0.0 | 10.0 | 0.00 | 0.00 | 0.00 | 52 | 1002.3 |
| 20260508051024 | 72 | 70 | 0.0 | 10.0 | 0.00 | 0.00 | 0.00 | 52 | 1002.2 |
| 20260508050524 | 72 | 56 | 2.0 | 8.0 | 0.00 | 0.00 | 0.00 | 52 | 1002.1 |
| 20260508050034 | 72 | 98 | 1.0 | 9.0 | 0.00 | 0.00 | 0.00 | 53 | 1002.0 |
| 20260508045523 | 72 | 67 | 3.0 | 9.0 | 0.00 | 0.00 | 0.00 | 53 | 1001.9 |
| 20260508045023 | 72 | 63 | 2.0 | 9.0 | 0.00 | 0.00 | 0.00 | 54 | 1001.8 |
| 20260508044525 | 73 | 76 | 1.0 | 9.0 | 0.00 | 0.00 | 0.00 | 55 | 1001.7 |
| 20260508044022 | 73 | 104 | 1.0 | 10.0 | 0.00 | 0.00 | 0.00 | 56 | 1001.7 |
| 20260508043522 | 73 | 41 | 2.0 | 15.0 | 0.00 | 0.00 | 0.00 | 57 | 1001.6 |
| 20260508043031 | 73 | 6 | 4.0 | 15.0 | 0.00 | 0.00 | 0.00 | 57 | 1001.7 |
| 20260508042522 | 73 | 105 | 2.0 | 11.0 | 0.00 | 0.00 | 0.00 | 57 | 1001.5 |
| 20260508042022 | 73 | 63 | 3.0 | 13.0 | 0.00 | 0.00 | 0.00 | 57 | 1001.5 |
| 20260508041522 | 74 | 44 | 3.0 | 14.0 | 0.00 | 0.00 | 0.00 | 58 | 1001.3 |
| 20260508041022 | 74 | 114 | 3.0 | 14.0 | 0.00 | 0.00 | 0.00 | 57 | 1001.4 |
| 20260508040522 | 75 | 94 | 2.0 | 10.0 | 0.00 | 0.00 | 0.00 | 56 | 1001.3 |
| 20260508040021 | 75 | 60 | 2.0 | 11.0 | 0.00 | 0.00 | 0.00 | 55 | 1001.1 |
| 20260508035524 | 75 | 350 | 3.0 | 11.0 | 0.00 | 0.00 | 0.00 | 56 | 1000.8 |
| 20260508035021 | 76 | 27 | 1.0 | 9.0 | 0.00 | 0.00 | 0.00 | 58 | 1000.9 |
| 20260508034526 | 76 | 68 | 3.0 | 9.0 | 0.00 | 0.00 | 0.00 | 60 | 1000.8 |
| 20260508034020 | 76 | 38 | 2.0 | 10.0 | 0.00 | 0.00 | 0.00 | 57 | 1000.8 |
| 20260508033520 | 76 | 70 | 0.0 | 1.0 | 0.00 | 0.00 | 0.00 | 55 | 1000.7 |
| 20260508033020 | 76 | 72 | 0.0 | 2.0 | 0.00 | 0.00 | 0.00 | 58 | 1000.6 |
| 20260508032520 | 76 | 62 | 0.0 | 2.0 | 0.00 | 0.00 | 0.00 | 58 | 1000.5 |
| 20260508032020 | 76 | 121 | 0.0 | 6.0 | 0.00 | 0.00 | 0.00 | 59 | 1000.5 |
| 20260508031503 | 76 | 53 | 1.0 | 6.0 | 0.00 | 0.00 | 0.00 | 60 | 1000.4 |
| 20260508031002 | 76 | 69 | 2.0 | 7.0 | 0.00 | 0.00 | 0.00 | 60 | 1000.3 |
| 20260508030505 | 76 | 91 | 2.0 | 7.0 | 0.00 | 0.00 | 0.00 | 60 | 1000.2 |
| 20260508030002 | 77 | 96 | 0.0 | 1.0 | 0.00 | 0.00 | 0.00 | 59 | 1000.1 |
| 20260508025501 | 77 | 57 | 0.0 | 1.0 | 0.00 | 0.00 | 0.00 | 59 | 1000.1 |
| 20260508025001 | 77 | 60 | 0.0 | 1.0 | 0.00 | 0.00 | 0.00 | 58 | 1000.1 |
| 20260508024543 | 77 | 49 | 0.0 | 1.0 | 0.00 | 0.00 | 0.00 | 58 | 1000.1 |